|
|
Asteroid 2016 FF1
(Preview)
The 46 - 100 metre wide asteroid 2016 FF1 will make a close pass (58.96 lunar distances, 0.15150 AU), travelling at 8.23 km/second, to the Earth on the 4th April 2018 @ 14:11 UT ±02:01. See more The Lunar Distance (LD), the distance between Earth and the Moon, equals 384,401 km, (or 0.00256 AU).
|
Blobrana
|
0
|
130
|
|
|
|
|
Asteroid 2018 ER1
(Preview)
The 20 - 44 metre wide asteroid 2018 ER1 will make a close pass (15.51 lunar distances, 0.03984 AU), travelling at 3.97 km/second, to the Earth on the 2nd April 2018 @ 20:25 UT ± 00:01. See more The Lunar Distance (LD), the distance between Earth and the Moon, equals 384,401 km, (or 0.00256 AU).
|
Blobrana
|
0
|
290
|
|
|
|
|
Asteroid 2018 EM4
(Preview)
The 23 - 52 metre wide asteroid 2018 EM4 will make a close pass (6.23 lunar distances, 0.0160 AU), travelling at 6.19 km/second, to the Earth on the 1st April 2018 @ 05:51 UT ±00:01. See more The Lunar Distance (LD), the distance between Earth and the Moon, equals 384,401 km, (or 0.00256 AU).
|
Blobrana
|
0
|
203
|
|
|
|
|
Asteroid 2018 FV1
(Preview)
The 41 - 93 metre wide asteroid 2018 FV1 will make a close pass (33.47 lunar distances, 0.08599 AU), travelling at 7.35 km/second, to the Earth on the 1st April 2018 @ 13:54 UT ±00:01. See more The Lunar Distance (LD), the distance between Earth and the Moon, equals 384,401 km, (or 0.00256 AU).
|
Blobrana
|
0
|
198
|
|
|
|
|
Asteroid 2007 RX8
(Preview)
The 33 - 75 metre wide asteroid 2007 RX8 will make a close pass (33.0 lunar distances, 0.08488 AU), travelling at 8.50 km/second, to the Earth on the 1st April 2018 @ 10:28 UT ±02:53. See more The Lunar Distance (LD), the distance between Earth and the Moon, equals 384,401 km, (or 0.00256 AU).
|
Blobrana
|
0
|
148
|
|
|
|
|
Asteroid 784 Pickeringia
(Preview)
Asteroid 784 Pickeringia (1914 UM) in the constellation Virgo makes its closest approach to the Earth (1.712 AU) on the 31st March 2018
|
Blobrana
|
0
|
179
|
|
|
|
|
Asteroid 2018 FC1
(Preview)
The 120 - 260 metre wide asteroid 2018 FC1 will make a close pass (76.63 lunar distances, 0.19690 AU), travelling at 15.15 km/second, to the Earth on the 30th March 2018 @ 16:21 UT ±00:03. See more The Lunar Distance (LD), the distance between Earth and the Moon, equals 384,401 km, (or 0.00256 AU).
|
Blobrana
|
0
|
157
|
|
|
|
|
Asteroid 2018 FB2
(Preview)
The 20 - 44 metre wide asteroid 2018 FB2 will make a close pass (9.98 lunar distances, 0.02564 AU), travelling at 6.70 km/second, to the Earth on the 30th March 2018 @ 06:33 UT ±00:01. See more The Lunar Distance (LD), the distance between Earth and the Moon, equals 384,401 km, (or 0.00256 AU).
|
Blobrana
|
0
|
187
|
|
|
|
|
Asteroid 2018 FO3
(Preview)
The 20 - 44 metre wide asteroid 2018 FO3 will make a close pass (29.59 lunar distances, 0.0760 AU), travelling at 5.74 km/second, to the Earth on the 30th March 2018 @ 04:16 UT ±00:04. See more The Lunar Distance (LD), the distance between Earth and the Moon, equals 384,401 km, (or 0.00256 AU).
|
Blobrana
|
0
|
133
|
|
|
|
|
Asteroid 2006 UF17
(Preview)
The 120 - 270 metre wide asteroid 2006 UF17 will make a close pass (46.89 lunar distances, 0.1205 AU), travelling at 23.11 km/second, to the Earth on the 30th March 2018 @ 00:31 UT ±00:04. See more The Lunar Distance (LD), the distance between Earth and the Moon, equals 384,401 km, (or 0.00256 AU).
|
Blobrana
|
0
|
145
|
|
|
|
|
Asteroid A/2018 F4
(Preview)
Orbital Elements at Epoch 2458200.5 (2018-Mar-23.0) TDB Reference: JPL 1 (heliocentric ecliptic J2000) ElementValueUncertainty (1-sigma) Units e1.0562292750058640.097027 a-60.85396840329303105.78auq3.4217745245469190.050204aui79.234695148822151.7004degnode26.5...
|
Blobrana
|
0
|
213
|
|
|
|
|
Asteroid 2018 FB
(Preview)
The 42 - 94 metre wide asteroid 2018 FB will make a close pass (4.88 lunar distances, 0.01254 AU), travelling at 8.48 km/second, to the Earth on the 29th March 2018 @ 21:39 UT ±00:01. See more The Lunar Distance (LD), the distance between Earth and the Moon, equals 384,401 km, (or 0.00256 AU).
|
Blobrana
|
0
|
200
|
|
|
|
|
Asteroid 2018 FE4
(Preview)
The 28 - 62 metre wide asteroid 2018 FE4 will make a close pass (13.21 lunar distances, 0.0339 AU), travelling at 20.67 km/second, to the Earth on the 29th March 2018 @ 15:08 UT ±00:01. See more The Lunar Distance (LD), the distance between Earth and the Moon, equals 384,401 km, (or 0.00256 AU).
|
Blobrana
|
0
|
171
|
|
|
|
|
Asteroid 2018 FU3
(Preview)
The 15 - 34 metre wide asteroid 2018 FU3 will make a close pass (17.63 lunar distances, 0.0453 AU), travelling at 8.41 km/second, to the Earth on the 29th March 2018 @ 09:18 UT ±00:01. See more The Lunar Distance (LD), the distance between Earth and the Moon, equals 384,401 km, (or 0.00256 AU).
|
Blobrana
|
0
|
173
|
|
|
|
|
Centaur 31824 Elatus
(Preview)
31824 Elatus, provisional designation 1999 UG5, is a dark centaur from the outer Solar System, approximately 48 kilometers in diameter. It was discovered on 29 October 1999, by astronomers of the Catalina Sky Survey at Mount Lemmon Observatory in Arizona, United States. The minor planet was name...
|
Blobrana
|
1
|
465
|
|
|